| time (UTC) | temp F | wind direction | speed knots | gust knots | rain 1hr in | rain 24hr in | rain mn in | humidity % | barometer mb |
| 20260906234547 | 78 | 148 | 7.0 | 14.8 | 0.00 | 0.00 | 0.00 | 23 | 1013.2 |
| 20260906233045 | 79 | 217 | 6.1 | 13.9 | 0.00 | 0.00 | 0.00 | 22 | 1013.2 |
| 20260906231546 | 79 | 195 | 8.7 | 20.9 | 0.00 | 0.00 | 0.00 | 22 | 1013.4 |
| 20260906230051 | 80 | 194 | 6.1 | 16.5 | 0.00 | 0.00 | 0.00 | 21 | 1013.5 |
| 20260906224552 | 80 | 211 | 9.6 | 20.0 | 0.00 | 0.00 | 0.00 | 20 | 1013.3 |
| 20260906223045 | 81 | 223 | 7.0 | 19.1 | 0.00 | 0.00 | 0.00 | 23 | 1013.6 |
| 20260906221553 | 81 | 144 | 7.8 | 14.8 | 0.00 | 0.00 | 0.00 | 22 | 1013.7 |
| 20260906220046 | 82 | 193 | 7.8 | 16.5 | 0.00 | 0.00 | 0.00 | 20 | 1013.8 |
| 20260906214544 | 82 | 244 | 8.7 | 19.1 | 0.00 | 0.00 | 0.00 | 20 | 1013.7 |
| 20260906213043 | 82 | 209 | 5.2 | 16.5 | 0.00 | 0.00 | 0.00 | 20 | 1014.2 |
| 20260906211550 | 81 | 131 | 6.1 | 13.9 | 0.00 | 0.00 | 0.00 | 21 | 1013.9 |
| 20260906210045 | 80 | 227 | 8.7 | 21.7 | 0.00 | 0.00 | 0.00 | 18 | 1014.2 |
| 20260906204601 | 81 | 213 | 5.2 | 15.6 | 0.00 | 0.00 | 0.00 | 19 | 1014.5 |
| 20260906203041 | 82 | 211 | 7.0 | 18.2 | 0.00 | 0.00 | 0.00 | 18 | 1014.5 |
| 20260906201603 | 83 | 258 | 7.8 | 15.6 | 0.00 | 0.00 | 0.00 | 18 | 1014.5 |
| 20260906200043 | 82 | 198 | 7.0 | 16.5 | 0.00 | 0.00 | 0.00 | 19 | 1014.5 |
| 20260906194542 | 82 | 140 | 8.7 | 20.9 | 0.00 | 0.00 | 0.00 | 20 | 1014.6 |
| 20260906193050 | 82 | 194 | 5.2 | 19.1 | 0.00 | 0.00 | 0.00 | 19 | 1014.6 |
| 20260906191549 | 82 | 210 | 4.3 | 17.4 | 0.00 | 0.00 | 0.00 | 18 | 1014.8 |
| 20260906190043 | 81 | 212 | 6.1 | 16.5 | 0.00 | 0.00 | 0.00 | 19 | 1015.1 |
| 20260906184542 | 80 | 232 | 5.2 | 17.4 | 0.00 | 0.00 | 0.00 | 21 | 1015.5 |
| 20260906183046 | 80 | 186 | 7.0 | 18.2 | 0.00 | 0.00 | 0.00 | 21 | 1015.9 |
| 20260906181547 | 79 | 194 | 6.1 | 13.9 | 0.00 | 0.00 | 0.00 | 23 | 1016.1 |
| 20260906180058 | 79 | 155 | 5.2 | 13.9 | 0.00 | 0.00 | 0.00 | 24 | 1016.0 |
| 20260906174541 | 78 | 211 | 5.2 | 13.9 | 0.00 | 0.00 | 0.00 | 22 | 1016.4 |
| 20260906173044 | 78 | 244 | 7.0 | 15.6 | 0.00 | 0.00 | 0.00 | 23 | 1016.7 |
| 20260906171543 | 78 | 197 | 4.3 | 9.6 | 0.00 | 0.00 | 0.00 | 24 | 1016.8 |
| 20260906170042 | 76 | 230 | 7.0 | 14.8 | 0.00 | 0.00 | 0.00 | 24 | 1017.0 |
| 20260906164549 | 76 | 233 | 5.2 | 12.2 | 0.00 | 0.00 | 0.00 | 24 | 1017.0 |
| 20260906163044 | 74 | 182 | 5.2 | 9.6 | 0.00 | 0.00 | 0.00 | 26 | 1017.1 |
| 20260906161547 | 69 | 30 | 0.0 | 4.3 | 0.00 | 0.00 | 0.00 | 33 | 1017.1 |
| 20260906160050 | 66 | 24 | 2.6 | 4.3 | 0.00 | 0.00 | 0.00 | 39 | 1017.2 |
| 20260906154554 | 63 | 19 | 2.6 | 7.0 | 0.00 | 0.00 | 0.00 | 39 | 1017.3 |
| 20260906153051 | 61 | 91 | 3.5 | 7.0 | 0.00 | 0.00 | 0.00 | 43 | 1017.5 |
| 20260906151542 | 59 | 63 | 3.5 | 5.2 | 0.00 | 0.00 | 0.00 | 45 | 1017.5 |
| 20260906150055 | 56 | 49 | 0.0 | 3.5 | 0.00 | 0.00 | 0.00 | 52 | 1017.7 |
| 20260906144543 | 53 | 47 | 1.7 | 4.3 | 0.00 | 0.00 | 0.00 | 52 | 1017.6 |
| 20260906143046 | 50 | 58 | 0.9 | 3.5 | 0.00 | 0.00 | 0.00 | 56 | 1017.5 |
| 20260906141546 | 49 | 0 | 0.0 | 2.6 | 0.00 | 0.00 | 0.00 | 59 | 1017.5 |
| 20260906140044 | 47 | 0 | 0.0 | 2.6 | 0.00 | 0.00 | 0.00 | 60 | 1017.3 |
| 20260906134541 | 46 | 77 | 1.7 | 3.5 | 0.00 | 0.00 | 0.00 | 62 | 1017.1 |
| 20260906133042 | 47 | 77 | 0.0 | 5.2 | 0.00 | 0.00 | 0.00 | 58 | 1017.0 |
| 20260906131547 | 47 | 40 | 2.6 | 4.3 | 0.00 | 0.00 | 0.00 | 58 | 1016.8 |
| 20260906130050 | 46 | 80 | 1.7 | 3.5 | 0.00 | 0.00 | 0.00 | 59 | 1016.7 |
| 20260906124542 | 47 | 0 | 0.0 | 1.7 | 0.00 | 0.00 | 0.00 | 57 | 1016.6 |
| 20260906123044 | 47 | 91 | 1.7 | 4.3 | 0.00 | 0.00 | 0.00 | 56 | 1016.5 |
| 20260906121545 | 48 | 78 | 1.7 | 6.1 | 0.00 | 0.00 | 0.00 | 55 | 1016.5 |
| 20260906120043 | 49 | 66 | 2.6 | 5.2 | 0.00 | 0.00 | 0.00 | 54 | 1016.5 |
| 20260906114556 | 49 | 0 | 1.7 | 4.3 | 0.00 | 0.00 | 0.00 | 53 | 1016.5 |
| 20260906113050 | 50 | 89 | 2.6 | 7.0 | 0.00 | 0.00 | 0.00 | 51 | 1016.4 |
| 20260906111549 | 51 | 51 | 3.5 | 7.8 | 0.00 | 0.00 | 0.00 | 50 | 1016.5 |
| 20260906110041 | 52 | 85 | 3.5 | 7.8 | 0.00 | 0.00 | 0.00 | 49 | 1016.4 |
| 20260906104547 | 51 | 68 | 5.2 | 9.6 | 0.00 | 0.00 | 0.00 | 49 | 1016.0 |
| 20260906103049 | 52 | 68 | 3.5 | 8.7 | 0.00 | 0.00 | 0.00 | 49 | 1016.1 |
| 20260906101543 | 52 | 83 | 6.1 | 11.3 | 0.00 | 0.00 | 0.00 | 48 | 1015.9 |
| 20260906100055 | 52 | 69 | 5.2 | 8.7 | 0.00 | 0.00 | 0.00 | 49 | 1015.9 |
| 20260906094551 | 52 | 66 | 6.1 | 10.4 | 0.00 | 0.00 | 0.00 | 48 | 1015.7 |
| 20260906093043 | 52 | 85 | 6.1 | 8.7 | 0.00 | 0.00 | 0.00 | 49 | 1015.5 |
| 20260906091543 | 52 | 78 | 6.1 | 8.7 | 0.00 | 0.00 | 0.00 | 49 | 1015.6 |
| 20260906090044 | 52 | 106 | 1.7 | 5.2 | 0.00 | 0.00 | 0.00 | 48 | 1015.7 |
| 20260906084547 | 52 | 57 | 6.1 | 8.7 | 0.00 | 0.00 | 0.00 | 49 | 1015.6 |
| 20260906083043 | 52 | 65 | 3.5 | 7.0 | 0.00 | 0.00 | 0.00 | 49 | 1015.8 |
| 20260906081543 | 52 | 103 | 4.3 | 7.8 | 0.00 | 0.00 | 0.00 | 47 | 1015.6 |
| 20260906080052 | 53 | 82 | 6.1 | 7.0 | 0.00 | 0.00 | 0.00 | 50 | 1015.6 |
| 20260906074551 | 54 | 86 | 4.3 | 7.0 | 0.00 | 0.00 | 0.00 | 49 | 1015.6 |
| 20260906073044 | 54 | 126 | 5.2 | 7.0 | 0.00 | 0.00 | 0.00 | 45 | 1015.7 |
| 20260906071543 | 55 | 96 | 5.2 | 8.7 | 0.00 | 0.00 | 0.00 | 44 | 1015.6 |
| 20260906070047 | 55 | 89 | 4.3 | 9.6 | 0.00 | 0.00 | 0.00 | 47 | 1015.4 |
| 20260906064543 | 55 | 98 | 5.2 | 7.8 | 0.00 | 0.00 | 0.00 | 45 | 1015.2 |
| 20260906063046 | 55 | 111 | 6.1 | 7.8 | 0.00 | 0.00 | 0.00 | 45 | 1015.2 |
| 20260906061542 | 56 | 113 | 3.5 | 7.8 | 0.00 | 0.00 | 0.00 | 44 | 1015.2 |
| 20260906060047 | 57 | 109 | 4.3 | 7.8 | 0.00 | 0.00 | 0.00 | 43 | 1015.2 |
| 20260906054601 | 58 | 112 | 4.3 | 8.7 | 0.00 | 0.00 | 0.00 | 40 | 1015.4 |
| 20260906053041 | 57 | 92 | 3.5 | 6.1 | 0.00 | 0.00 | 0.00 | 41 | 1015.5 |
| 20260906051544 | 58 | 96 | 5.2 | 7.8 | 0.00 | 0.00 | 0.00 | 41 | 1015.6 |
| 20260906050045 | 59 | 89 | 3.5 | 7.8 | 0.00 | 0.00 | 0.00 | 40 | 1015.7 |
| 20260906044541 | 60 | 89 | 2.6 | 7.0 | 0.00 | 0.00 | 0.00 | 37 | 1015.8 |
| 20260906043045 | 61 | 82 | 5.2 | 7.8 | 0.00 | 0.00 | 0.00 | 35 | 1015.9 |
| 20260906041542 | 62 | 0 | 0.0 | 3.5 | 0.00 | 0.00 | 0.00 | 34 | 1016.0 |
| 20260906040048 | 63 | 99 | 2.6 | 5.2 | 0.00 | 0.00 | 0.00 | 33 | 1015.9 |
| 20260906034552 | 64 | 76 | 3.5 | 6.1 | 0.00 | 0.00 | 0.00 | 33 | 1016.0 |
| 20260906033045 | 65 | 108 | 8.7 | 13.9 | 0.00 | 0.00 | 0.00 | 32 | 1015.9 |
| 20260906031605 | 67 | 94 | 3.5 | 7.0 | 0.00 | 0.00 | 0.00 | 32 | 1016.0 |
| 20260906030042 | 68 | 146 | 4.3 | 7.8 | 0.00 | 0.00 | 0.00 | 27 | 1015.9 |
| 20260906024557 | 68 | 152 | 6.1 | 9.6 | 0.00 | 0.00 | 0.00 | 26 | 1015.9 |
| 20260906023046 | 70 | 144 | 3.5 | 7.0 | 0.00 | 0.00 | 0.00 | 25 | 1015.6 |
| 20260906021542 | 71 | 161 | 1.7 | 4.3 | 0.00 | 0.00 | 0.00 | 24 | 1015.4 |
| 20260906020047 | 73 | 180 | 1.7 | 5.2 | 0.00 | 0.00 | 0.00 | 23 | 1015.5 |
| 20260906014543 | 75 | 181 | 2.6 | 6.1 | 0.00 | 0.00 | 0.00 | 22 | 1015.6 |
| 20260906013041 | 77 | 202 | 2.6 | 5.2 | 0.00 | 0.00 | 0.00 | 21 | 1015.8 |
| 20260906011542 | 79 | 171 | 4.3 | 9.6 | 0.00 | 0.00 | 0.00 | 19 | 1015.7 |
| 20260906010052 | 79 | 220 | 1.7 | 9.6 | 0.00 | 0.00 | 0.00 | 20 | 1015.7 |
| 20260906004544 | 80 | 197 | 3.5 | 9.6 | 0.00 | 0.00 | 0.00 | 18 | 1015.6 |
| 20260906003045 | 81 | 132 | 7.0 | 12.2 | 0.00 | 0.00 | 0.00 | 17 | 1015.6 |
| 20260906001544 | 81 | 236 | 2.6 | 13.9 | 0.00 | 0.00 | 0.00 | 18 | 1015.6 |
| 20260906000055 | 82 | 228 | 2.6 | 12.2 | 0.00 | 0.00 | 0.00 | 18 | 1015.6 |